DW8633 Weather Reports


Display with metric or nautical units.
time (UTC)temp
F
wind
direction
speed
MPH
gust
MPH
rain 1hr
in
rain 24hr
in
rain mn
in
humidity
%
barometer
mb
20260902022507 71 130 6.0 9.0 0.00 0.00 0.00 51 930.4
20260902021512 71 130 6.0 8.0 0.00 0.00 0.00 50 930.4
20260902021010 72 119 6.0 8.0 0.00 0.00 0.00 49 930.3
20260902020511 72 126 5.0 7.0 0.00 0.00 0.00 48 930.3
20260902020011 72 117 5.0 9.0 0.00 0.00 0.00 48 930.2
20260902015510 73 112 5.0 9.0 0.00 0.00 0.00 47 930.3
20260902015011 73 122 5.0 9.0 0.00 0.00 0.00 47 930.3
20260902014523 73 109 6.0 8.0 0.00 0.00 0.00 47 930.3
20260902014013 73 111 5.0 6.0 0.00 0.00 0.00 47 930.3
20260902013510 74 109 4.0 6.0 0.00 0.00 0.00 46 930.3
20260902013010 75 99 4.0 7.0 0.00 0.00 0.00 44 930.3
20260902012509 76 94 4.0 10.0 0.00 0.00 0.00 44 930.4
20260902011505 76 100 7.0 12.0 0.00 0.00 0.00 43 930.3
20260902011005 76 89 8.0 11.0 0.00 0.00 0.00 43 930.4
20260902010504 76 84 6.0 10.0 0.00 0.00 0.00 44 930.4
20260902010007 76 91 5.0 10.0 0.00 0.00 0.00 44 930.4
20260902005505 76 91 6.0 10.0 0.00 0.00 0.00 43 930.3
20260902005004 77 88 6.0 10.0 0.00 0.00 0.00 43 930.3
20260902004506 77 73 6.0 9.0 0.00 0.00 0.00 43 930.3
20260902004004 77 90 6.0 11.0 0.00 0.00 0.00 42 930.3
20260902003505 77 83 6.0 14.0 0.00 0.00 0.00 42 930.3
20260902003003 78 91 8.0 14.0 0.00 0.00 0.00 40 930.3
20260902002502 79 92 9.0 12.0 0.00 0.00 0.00 39 930.3
20260902001503 79 98 8.0 13.0 0.00 0.00 0.00 38 930.3
20260902001002 79 91 8.0 13.0 0.00 0.00 0.00 38 930.4
20260902000501 79 83 7.0 13.0 0.00 0.00 0.00 37 930.4
20260902000002 79 113 9.0 13.0 0.00 0.00 0.00 37 930.4
20260901235502 79 105 8.0 18.0 0.00 0.00 0.00 36 930.4
20260901235100 80 107 9.0 18.0 0.00 0.00 0.00 36 930.4
20260901235001 80 98 9.0 18.0 0.00 0.00 0.00 35 930.5
20260901234616 80 105 10.0 18.0 0.00 0.00 0.00 35 930.5
20260901234101 80 113 10.0 13.0 0.00 0.00 0.00 35 930.5
20260901233600 80 102 9.0 16.0 0.00 0.00 0.00 36 930.5
20260901233103 80 111 10.0 16.0 0.00 0.00 0.00 35 930.5
20260901232559 80 117 11.0 16.0 0.00 0.00 0.00 35 930.5
20260901232200 80 98 8.0 18.0 0.00 0.00 0.00 35 930.5
20260901231559 80 113 10.0 18.0 0.00 0.00 0.00 35 930.5
20260901231059 80 98 10.0 18.0 0.00 0.00 0.00 34 930.6
20260901230558 80 111 9.0 16.0 0.00 0.00 0.00 35 930.6
20260901230137 80 90 11.0 15.0 0.00 0.00 0.00 34 930.6
20260901225558 81 100 10.0 16.0 0.00 0.00 0.00 34 930.7
20260901225058 81 112 11.0 18.0 0.00 0.00 0.00 34 930.7
20260901224557 81 123 10.0 18.0 0.00 0.00 0.00 33 930.8
20260901224056 81 109 10.0 16.0 0.00 0.00 0.00 33 930.8
20260901223556 81 124 13.0 16.0 0.00 0.00 0.00 33 930.9
20260901223111 81 119 11.0 15.0 0.00 0.00 0.00 33 931.0
20260901222555 81 110 10.0 16.0 0.00 0.00 0.00 32 930.9
20260901222055 82 119 11.0 15.0 0.00 0.00 0.00 32 931.0
20260901221556 82 112 9.0 14.0 0.00 0.00 0.00 32 931.0
20260901221055 82 131 9.0 16.0 0.00 0.00 0.00 32 931.1
20260901220553 82 116 10.0 16.0 0.00 0.00 0.00 32 931.1
20260901220100 81 103 12.0 18.0 0.00 0.00 0.00 33 931.2
20260901215552 81 121 10.0 20.0 0.00 0.00 0.00 34 931.1
20260901215051 81 132 10.0 14.0 0.00 0.00 0.00 33 931.2
20260901214551 81 96 9.0 15.0 0.00 0.00 0.00 33 931.2
20260901214050 81 126 9.0 15.0 0.00 0.00 0.00 33 931.2
20260901213553 81 121 10.0 15.0 0.00 0.00 0.00 33 931.3
20260901213050 81 107 10.0 18.0 0.00 0.00 0.00 33 931.5
20260901212548 81 106 11.0 18.0 0.00 0.00 0.00 33 931.5
20260901212149 81 111 9.0 18.0 0.00 0.00 0.00 34 931.5
20260901211553 80 119 8.0 15.0 0.00 0.00 0.00 34 931.6
20260901211047 80 101 10.0 15.0 0.00 0.00 0.00 33 931.6
20260901210546 80 113 10.0 15.0 0.00 0.00 0.00 34 931.7
20260901210050 80 111 10.0 15.0 0.00 0.00 0.00 34 931.7
20260901205547 80 110 10.0 15.0 0.00 0.00 0.00 35 931.7
20260901205043 80 123 10.0 15.0 0.00 0.00 0.00 35 931.8
20260901204546 80 114 10.0 15.0 0.00 0.00 0.00 35 931.9
20260901204045 79 90 7.0 15.0 0.00 0.00 0.00 36 931.9
20260901203542 79 113 11.0 16.0 0.00 0.00 0.00 35 931.9
20260901203046 80 110 10.0 14.0 0.00 0.00 0.00 34 932.0
20260901202541 80 125 9.0 16.0 0.00 0.00 0.00 36 931.9
20260901202143 80 125 9.0 16.0 0.00 0.00 0.00 36 932.0
20260901201540 80 103 9.0 16.0 0.00 0.00 0.00 35 932.1
20260901201039 79 115 9.0 16.0 0.00 0.00 0.00 36 932.2
20260901200539 79 115 8.0 14.0 0.00 0.00 0.00 37 932.2
20260901200052 78 109 10.0 15.0 0.00 0.00 0.00 36 932.3
20260901195537 78 105 8.0 15.0 0.00 0.00 0.00 37 932.3
20260901195036 79 108 10.0 15.0 0.00 0.00 0.00 36 932.4
20260901194547 79 128 9.0 14.0 0.00 0.00 0.00 36 932.5
20260901194035 79 131 9.0 15.0 0.00 0.00 0.00 36 932.5
20260901193535 78 129 9.0 15.0 0.00 0.00 0.00 37 932.6
20260901193034 79 111 10.0 13.0 0.00 0.00 0.00 37 932.7
20260901192532 79 109 8.0 12.0 0.00 0.00 0.00 38 932.6
20260901192032 79 98 10.0 14.0 0.00 0.00 0.00 37 932.7
20260901191532 79 94 9.0 16.0 0.00 0.00 0.00 37 932.8
20260901191032 78 117 8.0 16.0 0.00 0.00 0.00 38 932.9
20260901190530 78 142 10.0 15.0 0.00 0.00 0.00 38 933.0
20260901190034 78 128 10.0 15.0 0.00 0.00 0.00 39 933.1
20260901185529 78 109 10.0 15.0 0.00 0.00 0.00 38 933.1
20260901185034 77 132 10.0 15.0 0.00 0.00 0.00 39 933.2
20260901184530 78 106 9.0 13.0 0.00 0.00 0.00 39 933.2
20260901184028 78 121 10.0 13.0 0.00 0.00 0.00 39 933.3
20260901183527 78 111 8.0 15.0 0.00 0.00 0.00 39 933.3
20260901183038 78 147 8.0 15.0 0.00 0.00 0.00 39 933.5
20260901182526 78 130 8.0 15.0 0.00 0.00 0.00 39 933.4
20260901182126 77 140 9.0 14.0 0.00 0.00 0.00 40 933.5
20260901181527 77 140 8.0 14.0 0.00 0.00 0.00 40 933.5
20260901181025 77 143 8.0 13.0 0.00 0.00 0.00 39 933.6
20260901180524 77 153 9.0 14.0 0.00 0.00 0.00 39 933.7
20260901180025 77 136 9.0 14.0 0.00 0.00 0.00 40 933.7
20260901175526 76 147 9.0 13.0 0.00 0.00 0.00 40 933.8
20260901175022 76 129 8.0 12.0 0.00 0.00 0.00 41 933.9
20260901174521 77 129 9.0 14.0 0.00 0.00 0.00 40 933.9
20260901174021 76 138 10.0 14.0 0.00 0.00 0.00 41 934.0
20260901173521 76 113 10.0 16.0 0.00 0.00 0.00 40 934.1
20260901173020 76 136 10.0 16.0 0.00 0.00 0.00 40 934.2
20260901172523 76 121 10.0 14.0 0.00 0.00 0.00 40 934.0
20260901172120 74 128 8.0 14.0 0.00 0.00 0.00 42 934.1
20260901171523 74 106 7.0 14.0 0.00 0.00 0.00 43 934.1
20260901171022 74 108 9.0 14.0 0.00 0.00 0.00 43 934.1
20260901170521 74 99 10.0 14.0 0.00 0.00 0.00 42 934.0
20260901170019 74 117 10.0 14.0 0.00 0.00 0.00 42 934.0
20260901165518 74 117 10.0 15.0 0.00 0.00 0.00 42 933.9
20260901165019 74 128 11.0 15.0 0.00 0.00 0.00 42 934.0
20260901164518 74 125 9.0 13.0 0.00 0.00 0.00 42 933.9
20260901164019 74 126 9.0 13.0 0.00 0.00 0.00 42 933.8
20260901163518 74 117 9.0 14.0 0.00 0.00 0.00 43 933.9
20260901163018 74 121 10.0 14.0 0.00 0.00 0.00 43 934.0
20260901162522 74 121 10.0 14.0 0.00 0.00 0.00 43 934.0
20260901162116 74 112 8.0 11.0 0.00 0.00 0.00 42 934.0
20260901161517 74 113 7.0 16.0 0.00 0.00 0.00 44 934.0
20260901161015 74 103 8.0 16.0 0.00 0.00 0.00 44 933.9
20260901160514 73 126 8.0 12.0 0.00 0.00 0.00 45 933.9
20260901160014 73 120 8.0 12.0 0.00 0.00 0.00 45 933.9
20260901155512 73 360 7.0 13.0 0.00 0.00 0.00 46 934.0
20260901155015 72 360 7.0 11.0 0.00 0.00 0.00 47 933.9
20260901154511 72 360 8.0 11.0 0.00 0.00 0.00 48 933.9
20260901154010 71 360 7.0 11.0 0.00 0.00 0.00 49 934.0
20260901153510 71 360 6.0 11.0 0.00 0.00 0.00 49 934.1
20260901153011 71 360 6.0 9.0 0.00 0.00 0.00 50 934.1
20260901152511 70 127 7.0 11.0 0.00 0.00 0.00 50 934.2
20260901152105 70 360 6.0 11.0 0.00 0.00 0.00 54 934.2
20260901151507 68 360 6.0 9.0 0.00 0.00 0.00 54 934.3
20260901151004 67 116 6.0 8.0 0.00 0.00 0.00 55 934.3
20260901150505 66 360 5.0 7.0 0.00 0.00 0.00 58 934.2
20260901150001 64 360 4.0 7.0 0.00 0.00 0.00 60 934.4
20260901145604 63 146 4.0 6.0 0.00 0.00 0.00 61 934.3
20260901145058 62 188 3.0 6.0 0.00 0.00 0.00 64 934.3
20260901144558 60 224 0.0 0.0 0.00 0.00 0.00 68 934.2
20260901144056 59 224 0.0 0.0 0.00 0.00 0.00 70 934.2
20260901143555 58 224 0.0 0.0 0.00 0.00 0.00 72 934.2
20260901143053 57 224 0.0 0.0 0.00 0.00 0.00 72 934.3
20260901142555 56 224 0.0 0.0 0.00 0.00 0.00 73 934.2
20260901142055 55 224 0.0 0.0 0.00 0.00 0.00 75 934.2
20260901141050 54 224 0.0 0.0 0.00 0.00 0.00 76 934.2
20260901140548 53 224 0.0 0.0 0.00 0.00 0.00 77 934.3
20260901140050 52 360 0.0 0.0 0.00 0.00 0.00 78 934.3
20260901135549 51 360 0.0 0.0 0.00 0.00 0.00 78 934.3
20260901135046 50 360 0.0 0.0 0.00 0.00 0.00 79 934.3
20260901134545 50 360 0.0 0.0 0.00 0.00 0.00 79 934.3
20260901134045 49 360 0.0 0.0 0.00 0.00 0.00 80 934.4
20260901133544 49 360 0.0 0.0 0.00 0.00 0.00 80 934.4
20260901133046 48 360 0.0 0.0 0.00 0.00 0.00 81 934.4
20260901132547 48 360 0.0 0.0 0.00 0.00 0.00 82 934.4
20260901132045 47 360 0.0 0.0 0.00 0.00 0.00 83 934.4
20260901131043 46 360 0.0 0.0 0.00 0.00 0.00 84 934.6
20260901130544 45 360 0.0 0.0 0.00 0.00 0.00 85 934.5
20260901130042 44 360 0.0 0.0 0.00 0.00 0.00 85 934.5
20260901125543 43 360 0.0 0.0 0.00 0.00 0.00 85 934.4
20260901125044 42 223 0.0 0.0 0.00 0.00 0.00 85 934.4
20260901124551 42 360 0.0 0.0 0.00 0.00 0.00 84 934.4
20260901124041 42 360 0.0 0.0 0.00 0.00 0.00 83 934.3
20260901123545 42 360 0.0 0.0 0.00 0.00 0.00 82 934.3
20260901123040 42 360 0.0 0.0 0.00 0.00 0.00 82 934.3
20260901122539 43 360 0.0 0.0 0.00 0.00 0.00 80 934.3
20260901122141 44 360 0.0 0.0 0.00 0.00 0.00 79 934.2
20260901121039 45 360 0.0 0.0 0.00 0.00 0.00 83 934.3
20260901120539 44 360 0.0 0.0 0.00 0.00 0.00 83 934.3
20260901120038 44 360 0.0 0.0 0.00 0.00 0.00 83 934.3
20260901115539 43 360 0.0 0.0 0.00 0.00 0.00 83 934.3
20260901115038 43 360 0.0 0.0 0.00 0.00 0.00 83 934.2
20260901114539 43 360 0.0 0.0 0.00 0.00 0.00 83 934.2
20260901114038 43 360 0.0 0.0 0.00 0.00 0.00 83 934.3
20260901113538 43 360 0.0 0.0 0.00 0.00 0.00 82 934.3
20260901113041 43 360 0.0 0.0 0.00 0.00 0.00 81 934.2
20260901112537 43 360 0.0 0.0 0.00 0.00 0.00 82 934.2
20260901112037 44 360 0.0 0.0 0.00 0.00 0.00 82 934.2
20260901111038 44 360 0.0 0.0 0.00 0.00 0.00 81 934.1
20260901110537 44 360 0.0 0.0 0.00 0.00 0.00 82 934.2
20260901110044 44 360 0.0 0.0 0.00 0.00 0.00 82 934.2
20260901105538 44 360 0.0 0.0 0.00 0.00 0.00 83 934.2
20260901105037 43 360 0.0 0.0 0.00 0.00 0.00 83 934.2
20260901104537 43 360 0.0 0.0 0.00 0.00 0.00 82 934.2
20260901104037 43 360 0.0 0.0 0.00 0.00 0.00 82 934.2
20260901103535 43 360 0.0 0.0 0.00 0.00 0.00 81 934.2
20260901103035 43 360 0.0 0.0 0.00 0.00 0.00 80 934.2
20260901102534 44 360 0.0 0.0 0.00 0.00 0.00 80 934.0
20260901102133 44 360 0.0 0.0 0.00 0.00 0.00 79 934.1
20260901101030 45 360 0.0 0.0 0.00 0.00 0.00 79 934.1
20260901100530 45 360 0.0 0.0 0.00 0.00 0.00 79 934.0
20260901100030 45 360 0.0 0.0 0.00 0.00 0.00 79 934.0
20260901095531 45 360 0.0 0.0 0.00 0.00 0.00 80 934.1
20260901095031 45 360 0.0 0.0 0.00 0.00 0.00 80 934.0
20260901094530 45 360 0.0 0.0 0.00 0.00 0.00 79 934.0
20260901094031 45 360 0.0 0.0 0.00 0.00 0.00 79 933.9
20260901093529 46 360 0.0 0.0 0.00 0.00 0.00 79 933.9
20260901093029 46 360 0.0 0.0 0.00 0.00 0.00 78 934.0
20260901092529 46 360 0.0 0.0 0.00 0.00 0.00 79 933.9
20260901092131 46 360 0.0 0.0 0.00 0.00 0.00 80 934.0
20260901091029 45 360 0.0 0.0 0.00 0.00 0.00 79 934.0
20260901090529 45 360 0.0 0.0 0.00 0.00 0.00 79 934.1
20260901090028 45 360 0.0 0.0 0.00 0.00 0.00 79 934.0
20260901085529 46 360 0.0 0.0 0.00 0.00 0.00 79 934.0
20260901085029 46 360 0.0 0.0 0.00 0.00 0.00 78 934.1
20260901084532 46 360 0.0 0.0 0.00 0.00 0.00 78 934.1
20260901084028 47 360 0.0 0.0 0.00 0.00 0.00 77 934.1
20260901083531 47 360 0.0 0.0 0.00 0.00 0.00 79 934.1
20260901083029 47 360 0.0 0.0 0.00 0.00 0.00 79 934.2
20260901082528 47 360 0.0 0.0 0.00 0.00 0.00 79 934.2
20260901082028 46 360 0.0 0.0 0.00 0.00 0.00 80 934.1
20260901081029 45 360 0.0 0.0 0.00 0.00 0.00 78 934.1
20260901080528 45 360 0.0 0.0 0.00 0.00 0.00 79 934.1
20260901080027 45 360 0.0 0.0 0.00 0.00 0.00 78 934.1
20260901075526 45 360 0.0 0.0 0.00 0.00 0.00 77 934.1
20260901075023 46 360 0.0 0.0 0.00 0.00 0.00 75 934.0
20260901074524 47 360 0.0 0.0 0.00 0.00 0.00 75 933.9
20260901074023 48 360 0.0 0.0 0.00 0.00 0.00 74 934.0
20260901073523 48 360 0.0 0.0 0.00 0.00 0.00 74 934.1
20260901073025 49 360 0.0 0.0 0.00 0.00 0.00 76 934.2
20260901072524 49 360 0.0 0.0 0.00 0.00 0.00 76 934.2
20260901072022 48 360 0.0 0.0 0.00 0.00 0.00 76 934.1
20260901071024 47 360 0.0 0.0 0.00 0.00 0.00 77 934.0
20260901070522 46 360 0.0 0.0 0.00 0.00 0.00 77 933.9
20260901070027 47 360 0.0 0.0 0.00 0.00 0.00 74 934.0
20260901065520 48 360 0.0 0.0 0.00 0.00 0.00 72 934.1
20260901065019 49 360 0.0 0.0 0.00 0.00 0.00 70 934.0
20260901064518 50 360 0.0 0.0 0.00 0.00 0.00 69 933.9
20260901064018 51 360 0.0 1.0 0.00 0.00 0.00 71 933.9
20260901063516 51 360 0.0 4.0 0.00 0.00 0.00 71 933.9
20260901063016 51 360 1.0 5.0 0.00 0.00 0.00 71 933.8
20260901062515 51 360 4.0 5.0 0.00 0.00 0.00 73 933.9
20260901062015 49 360 0.0 0.0 0.00 0.00 0.00 73 933.8
20260901061015 50 360 0.0 0.0 0.00 0.00 0.00 72 933.5
20260901060515 50 360 0.0 0.0 0.00 0.00 0.00 71 933.5
20260901060015 50 360 0.0 0.0 0.00 0.00 0.00 72 933.6
20260901055514 50 360 0.0 0.0 0.00 0.00 0.00 71 933.7
20260901055015 50 360 0.0 1.0 0.00 0.00 0.00 71 933.7
20260901054514 50 360 0.0 2.0 0.00 0.00 0.00 71 933.7
20260901054014 50 360 0.0 2.0 0.00 0.00 0.00 70 933.6
20260901053513 51 360 0.0 1.0 0.00 0.00 0.00 68 933.5
20260901053014 52 360 0.0 4.0 0.00 0.00 0.00 67 933.5
20260901052511 52 360 0.0 4.0 0.00 0.00 0.00 67 933.5
20260901052011 53 360 2.0 4.0 0.00 0.00 0.00 65 933.4
20260901051010 56 360 0.0 4.0 0.00 0.00 0.00 64 933.2
20260901050509 54 360 0.0 3.0 0.00 0.00 0.00 65 933.3
20260901050008 55 360 0.0 0.0 0.00 0.00 0.00 65 933.2
20260901045508 55 360 0.0 0.0 0.00 0.00 0.00 64 933.2
20260901045008 55 360 0.0 0.0 0.00 0.00 0.00 64 933.0
20260901044509 55 360 0.0 1.0 0.00 0.00 0.00 63 933.1
20260901044009 56 360 0.0 5.0 0.00 0.00 0.00 63 933.0
20260901043508 55 360 2.0 5.0 0.00 0.00 0.00 65 933.1
20260901043009 54 360 1.0 5.0 0.00 0.00 0.00 66 933.1
20260901042508 54 360 3.0 5.0 0.00 0.00 0.00 64 933.1
20260901042008 59 360 0.0 2.0 0.00 0.00 0.00 60 933.1
20260901041013 60 360 0.0 0.0 0.00 0.00 0.00 56 933.3
20260901040509 60 360 0.0 4.0 0.00 0.00 0.00 57 933.4
20260901040009 60 360 0.0 4.0 0.00 0.00 0.00 58 933.3
20260901035508 59 360 2.0 4.0 0.00 0.00 0.00 59 933.3
20260901035009 58 360 0.0 2.0 0.00 0.00 0.00 60 933.3
20260901034511 57 360 0.0 0.0 0.00 0.00 0.00 62 933.4
20260901034007 57 360 0.0 1.0 0.00 0.00 0.00 62 933.3
20260901033506 56 360 0.0 2.0 0.00 0.00 0.00 63 933.2
20260901033006 56 360 0.0 5.0 0.00 0.00 0.00 62 933.2
20260901032507 57 360 0.0 6.0 0.00 0.00 0.00 61 933.2
20260901032006 57 360 4.0 6.0 0.00 0.00 0.00 61 933.2
20260901031007 57 360 3.0 6.0 0.00 0.00 0.00 61 933.1
20260901030507 57 360 4.0 5.0 0.00 0.00 0.00 60 933.0
20260901030007 58 360 4.0 7.0 0.00 0.00 0.00 59 933.0
20260901025504 58 360 5.0 8.0 0.00 0.00 0.00 59 932.9
20260901025003 59 360 6.0 7.0 0.00 0.00 0.00 57 932.8
20260901024503 60 360 5.0 6.0 0.00 0.00 0.00 56 932.8
20260901024002 60 360 4.0 6.0 0.00 0.00 0.00 56 932.7
20260901023501 61 360 4.0 6.0 0.00 0.00 0.00 55 932.7
20260901023000 62 360 4.0 6.0 0.00 0.00 0.00 53 932.6
20260901022600 62 360 4.0 6.0 0.00 0.00 0.00 53 932.6